Tracking 35237 objects as of 5-Sep-2026
HD Live streaming from Space Station
objects crossing your sky now

NOAA 17 DEB


NOAA 17 DEB is no longer on orbit


NORAD ID: 48726
Int'l Code: 2002-032BL
Launch date: June 24, 2002
Source: United States (US)
Launch site: AIR FORCE WESTERN TEST RANGE (AFWTR)
Decay date: 2024-11-30

Note: This is SATELLITE DEBRIS
Your satellite tracking list
Your tracking list is empty




NASA's NSSDC Master Catalog

Two Line Element Set (TLE):
1 48726U 02032BK  24227.09366659  .00141110  00000-0  15346-1 0  9993
2 48726  98.9393 275.4863 0034919 197.0227 162.9816 14.86847303176796
Source of the keplerian elements: AFSPC